Time,TemperatureF,DewpointF,PressureIn,WindDirection,WindDirectionDegrees,WindSpeedMPH,WindSpeedGustMPH,Humidity,HourlyPrecipIn,Conditions,Clouds,dailyrainin,SoftwareType,DateUTC
2013-06-03 00:02:00,68.7,63.3,28.88,NNE,30,0.0,0.0,83,0.00,,SKC,0.00,VWS V14.00,2013-06-03 04:02:00,
2013-06-03 00:07:00,68.5,63.2,28.88,NNE,30,0.0,0.0,83,0.00,,SKC,0.00,VWS V14.00,2013-06-03 04:07:00,
2013-06-03 00:10:00,68.5,63.2,28.88,NNE,30,0.0,0.0,83,0.00,,SKC,0.00,VWS V14.00,2013-06-03 04:10:00,
2013-06-03 00:12:00,68.5,63.2,28.88,NNE,30,0.0,0.0,83,0.00,,SKC,0.00,VWS V14.00,2013-06-03 04:12:00,
2013-06-03 00:17:00,68.4,63.0,28.88,NNE,30,0.0,0.0,83,0.00,,SKC,0.00,VWS V14.00,2013-06-03 04:17:00,
2013-06-03 00:22:00,68.2,62.8,28.88,NNE,30,0.0,0.0,83,0.00,,SKC,0.00,VWS V14.00,2013-06-03 04:22:00,
2013-06-03 00:27:00,68.2,63.2,28.88,NNE,30,0.0,0.0,84,0.00,,SKC,0.00,VWS V14.00,2013-06-03 04:27:00,
2013-06-03 00:32:00,68.2,63.2,28.88,NNE,30,0.0,0.0,84,0.00,,SKC,0.00,VWS V14.00,2013-06-03 04:32:00,
2013-06-03 00:37:00,68.0,63.0,28.88,NNE,30,0.0,0.0,84,0.00,,SKC,0.00,VWS V14.00,2013-06-03 04:37:00,
2013-06-03 00:42:00,68.0,63.0,28.88,NNE,30,0.0,0.0,84,0.00,,SKC,0.00,VWS V14.00,2013-06-03 04:42:00,
2013-06-03 00:47:00,68.0,63.0,28.88,NNE,30,0.0,0.0,84,0.00,,SKC,0.00,VWS V14.00,2013-06-03 04:47:00,
2013-06-03 00:52:00,68.0,63.0,28.88,NNE,30,0.0,0.0,84,0.00,,SKC,0.00,VWS V14.00,2013-06-03 04:52:00,
2013-06-03 00:57:00,68.0,63.0,28.88,NNE,30,0.0,0.0,84,0.00,,SKC,0.00,VWS V14.00,2013-06-03 04:57:00,
2013-06-03 01:02:00,68.0,63.0,28.88,NNE,30,0.0,0.0,84,0.00,,SKC,0.00,VWS V14.00,2013-06-03 05:02:00,
2013-06-03 01:07:00,67.8,63.2,28.88,NNE,30,0.0,0.0,85,0.00,,SKC,0.00,VWS V14.00,2013-06-03 05:07:00,
2013-06-03 01:12:00,67.8,63.2,28.88,NNE,30,0.0,0.0,85,0.00,,SKC,0.00,VWS V14.00,2013-06-03 05:12:00,
2013-06-03 01:18:00,67.8,63.2,28.88,NNE,30,0.0,0.0,85,0.00,,SKC,0.00,VWS V14.00,2013-06-03 05:18:00,
2013-06-03 01:23:00,67.6,63.0,28.88,NNE,30,0.0,0.0,85,0.00,,SKC,0.00,VWS V14.00,2013-06-03 05:23:00,
2013-06-03 01:28:00,67.6,63.0,28.88,NNE,30,0.0,0.0,85,0.00,,SKC,0.00,VWS V14.00,2013-06-03 05:28:00,
2013-06-03 01:33:00,67.6,63.0,28.88,NNE,30,0.0,0.0,85,0.00,,SKC,0.00,VWS V14.00,2013-06-03 05:33:00,
2013-06-03 01:38:00,67.6,63.3,28.88,NNE,30,0.0,0.0,86,0.00,,SKC,0.00,VWS V14.00,2013-06-03 05:38:00,
2013-06-03 01:43:00,67.6,63.3,28.88,NNE,30,0.0,0.0,86,0.00,,SKC,0.00,VWS V14.00,2013-06-03 05:43:00,
2013-06-03 01:48:00,67.6,63.3,28.88,NNE,30,0.0,0.0,86,0.00,,SKC,0.00,VWS V14.00,2013-06-03 05:48:00,
2013-06-03 01:53:00,67.8,63.5,28.88,NNE,30,0.0,0.0,86,0.00,,SKC,0.00,VWS V14.00,2013-06-03 05:53:00,
2013-06-03 01:58:00,67.6,63.3,28.88,NNE,30,0.0,0.0,86,0.00,,SKC,0.00,VWS V14.00,2013-06-03 05:58:00,
2013-06-03 02:03:00,67.6,63.3,28.88,NNE,30,0.0,0.0,86,0.00,,SKC,0.00,VWS V14.00,2013-06-03 06:03:00,
2013-06-03 02:08:00,67.6,63.3,28.88,NNE,30,0.0,0.0,86,0.00,,SKC,0.00,VWS V14.00,2013-06-03 06:08:00,
2013-06-03 02:13:00,67.5,63.1,28.88,NNE,30,0.0,0.0,86,0.00,,SKC,0.00,VWS V14.00,2013-06-03 06:13:00,
2013-06-03 02:18:00,67.5,63.1,28.88,NNE,30,0.0,0.0,86,0.00,,SKC,0.00,VWS V14.00,2013-06-03 06:18:00,
2013-06-03 02:23:00,67.3,63.0,28.88,NNE,30,0.0,0.0,86,0.00,,SKC,0.00,VWS V14.00,2013-06-03 06:23:00,
2013-06-03 02:28:00,67.3,63.0,28.88,NNE,30,0.0,0.0,86,0.00,,SKC,0.00,VWS V14.00,2013-06-03 06:28:00,
2013-06-03 02:33:00,67.1,62.8,28.88,NNE,30,0.0,0.0,86,0.00,,SKC,0.00,VWS V14.00,2013-06-03 06:33:00,
2013-06-03 02:38:00,67.1,62.8,28.88,NNE,30,0.0,0.0,86,0.00,,SKC,0.00,VWS V14.00,2013-06-03 06:38:00,
2013-06-03 02:43:00,67.1,62.8,28.88,NNE,30,0.0,0.0,86,0.00,,SKC,0.00,VWS V14.00,2013-06-03 06:43:00,
2013-06-03 02:48:00,67.1,62.8,28.88,NNE,30,0.0,0.0,86,0.00,,SKC,0.00,VWS V14.00,2013-06-03 06:48:00,
2013-06-03 02:53:00,66.9,62.6,28.88,NNE,30,0.0,0.0,86,0.00,,SKC,0.00,VWS V14.00,2013-06-03 06:53:00,
2013-06-03 02:58:00,66.7,62.4,28.88,NNE,30,0.0,0.0,86,0.00,,SKC,0.00,VWS V14.00,2013-06-03 06:58:00,
2013-06-03 03:03:00,66.7,62.4,28.88,NNE,30,0.0,0.0,86,0.00,,SKC,0.00,VWS V14.00,2013-06-03 07:03:00,
2013-06-03 03:08:00,66.7,62.4,28.85,NNE,30,0.0,0.0,86,0.00,,SKC,0.00,VWS V14.00,2013-06-03 07:08:00,
2013-06-03 03:13:00,66.7,62.4,28.85,NNE,30,0.0,0.0,86,0.00,,SKC,0.00,VWS V14.00,2013-06-03 07:13:00,
2013-06-03 03:18:00,66.7,62.4,28.85,NNE,30,0.0,0.0,86,0.00,,SKC,0.00,VWS V14.00,2013-06-03 07:18:00,
2013-06-03 03:23:00,66.7,62.4,28.85,NNE,30,0.0,0.0,86,0.00,,SKC,0.00,VWS V14.00,2013-06-03 07:23:00,
2013-06-03 03:28:00,66.6,62.2,28.85,NNE,30,0.0,0.0,86,0.00,,SKC,0.00,VWS V14.00,2013-06-03 07:28:00,
2013-06-03 03:33:00,66.6,62.6,28.85,NNE,30,0.0,0.0,87,0.00,,SKC,0.00,VWS V14.00,2013-06-03 07:33:00,
2013-06-03 03:38:00,66.6,62.6,28.88,NNE,30,0.0,0.0,87,0.00,,SKC,0.00,VWS V14.00,2013-06-03 07:38:00,
2013-06-03 03:43:00,66.6,62.6,28.88,NNE,30,0.0,0.0,87,0.00,,SKC,0.00,VWS V14.00,2013-06-03 07:43:00,
2013-06-03 03:48:00,66.6,62.6,28.85,NNE,30,0.0,0.0,87,0.00,,SKC,0.00,VWS V14.00,2013-06-03 07:48:00,
2013-06-03 03:53:00,66.4,62.4,28.85,NNE,30,0.0,0.0,87,0.00,,SKC,0.00,VWS V14.00,2013-06-03 07:53:00,
2013-06-03 03:58:00,66.4,62.4,28.85,NNE,30,0.0,0.0,87,0.00,,SKC,0.00,VWS V14.00,2013-06-03 07:58:00,
2013-06-03 04:03:00,66.4,62.4,28.85,NNE,30,0.0,0.0,87,0.00,,SKC,0.00,VWS V14.00,2013-06-03 08:03:00,
2013-06-03 04:08:00,66.4,62.4,28.85,NNE,30,0.0,0.0,87,0.00,,SKC,0.00,VWS V14.00,2013-06-03 08:08:00,
2013-06-03 04:13:00,66.4,62.4,28.85,NNE,30,0.0,0.0,87,0.00,,SKC,0.00,VWS V14.00,2013-06-03 08:13:00,
2013-06-03 04:18:00,66.4,62.4,28.85,NNE,30,0.0,0.0,87,0.00,,SKC,0.00,VWS V14.00,2013-06-03 08:18:00,
2013-06-03 04:23:00,66.6,62.6,28.85,NNE,30,0.0,0.0,87,0.00,,SKC,0.00,VWS V14.00,2013-06-03 08:23:00,
2013-06-03 04:28:00,66.6,62.9,28.85,NNE,30,0.0,0.0,88,0.00,,SKC,0.00,VWS V14.00,2013-06-03 08:28:00,
2013-06-03 04:33:00,66.6,62.9,28.88,NNE,30,0.0,0.0,88,0.00,,SKC,0.00,VWS V14.00,2013-06-03 08:33:00,
2013-06-03 04:38:00,66.6,62.9,28.88,NNE,30,0.0,0.0,88,0.00,,SKC,0.00,VWS V14.00,2013-06-03 08:38:00,
2013-06-03 04:43:00,66.7,63.1,28.88,NNE,30,0.0,0.0,88,0.00,,SKC,0.00,VWS V14.00,2013-06-03 08:43:00,
2013-06-03 04:48:00,66.7,63.1,28.85,NNE,30,0.0,0.0,88,0.00,,SKC,0.00,VWS V14.00,2013-06-03 08:48:00,
2013-06-03 04:53:00,66.7,63.1,28.85,NNE,30,0.0,0.0,88,0.00,,SKC,0.00,VWS V14.00,2013-06-03 08:53:00,
2013-06-03 04:58:00,66.9,63.3,28.85,NNE,30,0.0,0.0,88,0.00,,SKC,0.00,VWS V14.00,2013-06-03 08:58:00,
2013-06-03 05:03:00,66.9,63.3,28.85,NNE,30,0.0,0.0,88,0.00,,SKC,0.00,VWS V14.00,2013-06-03 09:03:00,
2013-06-03 05:08:00,66.9,63.3,28.85,NNE,30,0.0,0.0,88,0.00,,SKC,0.00,VWS V14.00,2013-06-03 09:08:00,
2013-06-03 05:13:00,66.9,63.3,28.85,NNE,30,0.0,0.0,88,0.00,,SKC,0.00,VWS V14.00,2013-06-03 09:13:00,
2013-06-03 05:18:00,66.9,63.3,28.88,NNE,30,0.0,0.0,88,0.00,,SKC,0.00,VWS V14.00,2013-06-03 09:18:00,
2013-06-03 05:23:00,67.1,63.8,28.88,NNE,30,0.0,0.0,89,0.00,,SKC,0.00,VWS V14.00,2013-06-03 09:23:00,
2013-06-03 05:28:00,67.1,63.8,28.88,NNE,30,0.0,0.0,89,0.00,,SKC,0.00,VWS V14.00,2013-06-03 09:28:00,
2013-06-03 05:33:00,67.3,63.9,28.88,NNE,30,0.0,0.0,89,0.00,,SKC,0.00,VWS V14.00,2013-06-03 09:33:00,
2013-06-03 05:38:00,67.3,63.9,28.88,NNE,30,0.0,0.0,89,0.00,,SKC,0.00,VWS V14.00,2013-06-03 09:38:00,
2013-06-03 05:43:00,67.3,63.9,28.88,NNE,30,0.0,0.0,89,0.00,,SKC,0.00,VWS V14.00,2013-06-03 09:43:00,
2013-06-03 05:48:00,67.3,63.9,28.88,NNE,30,0.0,0.0,89,0.00,,SKC,0.00,VWS V14.00,2013-06-03 09:48:00,
2013-06-03 05:53:00,67.3,63.9,28.88,NNE,30,0.0,0.0,89,0.00,,SKC,0.00,VWS V14.00,2013-06-03 09:53:00,
2013-06-03 05:58:00,67.3,63.9,28.88,NNE,30,0.0,0.0,89,0.00,,SKC,0.00,VWS V14.00,2013-06-03 09:58:00,
2013-06-03 06:03:00,67.5,64.1,28.88,NNE,30,0.0,0.0,89,0.00,,SKC,0.00,VWS V14.00,2013-06-03 10:03:00,
2013-06-03 06:08:00,67.3,63.9,28.88,NNE,30,0.0,0.0,89,0.00,,SKC,0.00,VWS V14.00,2013-06-03 10:08:00,
2013-06-03 06:13:00,67.3,63.9,28.88,NNE,30,0.0,0.0,89,0.00,,SKC,0.00,VWS V14.00,2013-06-03 10:13:00,
2013-06-03 06:18:00,67.5,64.1,28.88,NNE,30,0.0,0.0,89,0.00,,SKC,0.00,VWS V14.00,2013-06-03 10:18:00,
2013-06-03 06:23:00,67.5,64.1,28.88,NNE,30,0.0,0.0,89,0.00,,SKC,0.00,VWS V14.00,2013-06-03 10:23:00,
2013-06-03 06:28:00,67.5,64.1,28.88,NNE,30,0.0,0.0,89,0.00,,SKC,0.00,VWS V14.00,2013-06-03 10:28:00,
2013-06-03 06:33:00,67.5,64.1,28.88,NNE,30,0.0,0.0,89,0.00,,SKC,0.00,VWS V14.00,2013-06-03 10:33:00,
2013-06-03 06:38:00,67.5,64.1,28.88,NNE,30,0.0,0.0,89,0.00,,SKC,0.00,VWS V14.00,2013-06-03 10:38:00,
2013-06-03 06:43:00,67.6,64.3,28.88,NNE,30,0.0,0.0,89,0.00,,SKC,0.00,VWS V14.00,2013-06-03 10:43:00,
2013-06-03 06:48:00,67.6,64.3,28.88,NNE,30,0.0,0.0,89,0.00,,SKC,0.00,VWS V14.00,2013-06-03 10:48:00,
2013-06-03 06:53:00,67.6,64.3,28.88,NNE,30,0.0,0.0,89,0.00,,SKC,0.00,VWS V14.00,2013-06-03 10:53:00,
2013-06-03 06:58:00,67.6,64.3,28.88,NNE,30,0.0,0.0,89,0.00,,SKC,0.00,VWS V14.00,2013-06-03 10:58:00,
2013-06-03 07:03:00,67.6,64.6,28.88,NNE,30,0.0,0.0,90,0.00,,SKC,0.00,VWS V14.00,2013-06-03 11:03:00,
2013-06-03 07:08:00,67.8,64.8,28.88,NNE,30,0.0,0.0,90,0.00,,SKC,0.00,VWS V14.00,2013-06-03 11:08:00,
2013-06-03 07:13:00,67.8,64.8,28.88,NNE,30,0.0,0.0,90,0.00,,SKC,0.00,VWS V14.00,2013-06-03 11:13:00,
2013-06-03 07:19:00,68.0,64.6,28.91,NNE,30,0.0,0.0,89,0.00,,SKC,0.00,VWS V14.00,2013-06-03 11:19:00,
2013-06-03 07:24:00,68.0,64.6,28.91,NNE,30,0.0,0.0,89,0.00,,SKC,0.00,VWS V14.00,2013-06-03 11:24:00,
2013-06-03 07:29:00,68.0,64.6,28.91,NNE,30,0.0,0.0,89,0.00,,SKC,0.00,VWS V14.00,2013-06-03 11:29:00,
2013-06-03 07:34:00,68.2,64.8,28.91,NNE,30,0.0,0.0,89,0.00,,SKC,0.00,VWS V14.00,2013-06-03 11:34:00,
2013-06-03 07:39:00,68.2,65.1,28.91,NNE,30,0.0,0.0,90,0.00,,SKC,0.00,VWS V14.00,2013-06-03 11:39:00,
2013-06-03 07:44:00,68.2,65.1,28.91,NNE,30,0.0,0.0,90,0.00,,SKC,0.00,VWS V14.00,2013-06-03 11:44:00,
2013-06-03 07:49:00,68.2,65.1,28.91,NNE,30,0.0,0.0,90,0.00,,SKC,0.00,VWS V14.00,2013-06-03 11:49:00,
2013-06-03 07:54:00,68.2,65.1,28.91,NNE,30,0.0,0.0,90,0.00,,SKC,0.00,VWS V14.00,2013-06-03 11:54:00,
2013-06-03 07:59:00,68.2,65.1,28.91,NNE,30,0.0,0.0,90,0.00,,SKC,0.00,VWS V14.00,2013-06-03 11:59:00,
2013-06-03 08:04:00,68.0,65.0,28.91,NE,37,0.0,3.1,90,0.00,,SKC,0.00,VWS V14.00,2013-06-03 12:04:00,
2013-06-03 08:09:00,68.2,65.1,28.91,NE,37,0.0,3.1,90,0.00,,SKC,0.00,VWS V14.00,2013-06-03 12:09:00,
2013-06-03 08:14:00,68.2,65.1,28.91,NE,37,0.0,0.0,90,0.00,,SKC,0.00,VWS V14.00,2013-06-03 12:14:00,
2013-06-03 08:19:00,68.2,65.1,28.91,NE,37,0.0,0.0,90,0.00,,SKC,0.00,VWS V14.00,2013-06-03 12:19:00,
2013-06-03 08:24:00,68.2,65.1,28.91,NNE,18,0.0,0.0,90,0.00,,SKC,0.00,VWS V14.00,2013-06-03 12:24:00,
2013-06-03 08:29:00,68.4,65.3,28.91,NNE,23,0.0,0.0,90,0.00,,SKC,0.00,VWS V14.00,2013-06-03 12:29:00,
2013-06-03 08:34:00,68.5,65.5,28.91,NNE,23,0.0,0.0,90,0.00,,SKC,0.00,VWS V14.00,2013-06-03 12:34:00,
2013-06-03 08:39:00,68.7,65.7,28.91,NNE,23,0.0,0.0,90,0.00,,SKC,0.00,VWS V14.00,2013-06-03 12:39:00,
2013-06-03 08:44:00,68.7,65.7,28.91,NNE,24,0.0,0.0,90,0.00,,SKC,0.00,VWS V14.00,2013-06-03 12:44:00,
2013-06-03 08:49:00,68.9,65.8,28.91,NNE,31,0.0,0.0,90,0.00,,SKC,0.00,VWS V14.00,2013-06-03 12:49:00,
2013-06-03 08:54:00,68.9,65.8,28.91,NNE,31,0.0,0.0,90,0.00,,SKC,0.00,VWS V14.00,2013-06-03 12:54:00,
2013-06-03 08:59:00,68.9,65.8,28.91,NNE,31,0.0,0.0,90,0.00,,SKC,0.00,VWS V14.00,2013-06-03 12:59:00,
2013-06-03 09:04:00,68.9,65.5,28.91,NNE,31,0.0,0.0,89,0.00,,SKC,0.00,VWS V14.00,2013-06-03 13:04:00,
2013-06-03 09:09:00,69.3,65.9,28.91,NNE,31,0.0,0.0,89,0.00,,SKC,0.00,VWS V14.00,2013-06-03 13:09:00,
2013-06-03 09:14:00,69.4,66.1,28.91,NNE,29,0.0,3.1,89,0.00,,SKC,0.00,VWS V14.00,2013-06-03 13:14:00,
2013-06-03 09:19:00,70.2,66.8,28.91,NNE,28,0.0,3.1,89,0.00,,SKC,0.00,VWS V14.00,2013-06-03 13:19:00,
2013-06-03 09:24:00,70.7,67.3,28.91,NE,41,0.0,2.7,89,0.00,,SKC,0.00,VWS V14.00,2013-06-03 13:24:00,
2013-06-03 09:29:00,70.9,67.2,28.91,NE,38,0.0,2.7,88,0.00,,SKC,0.00,VWS V14.00,2013-06-03 13:29:00,
2013-06-03 09:34:00,71.1,67.0,28.91,NE,36,0.0,4.0,87,0.00,,SKC,0.00,VWS V14.00,2013-06-03 13:34:00,
2013-06-03 09:39:00,71.2,67.2,28.91,NE,39,0.0,6.3,87,0.00,,SKC,0.00,VWS V14.00,2013-06-03 13:39:00,
2013-06-03 09:44:00,71.6,67.2,28.91,NE,35,2.7,3.6,86,0.00,,SKC,0.00,VWS V14.00,2013-06-03 13:44:00,
2013-06-03 09:49:00,71.8,67.0,28.94,NE,43,0.0,3.6,85,0.00,,SKC,0.00,VWS V14.00,2013-06-03 13:49:00,
2013-06-03 09:54:00,72.0,67.2,28.94,NNE,20,0.0,0.0,85,0.00,,SKC,0.00,VWS V14.00,2013-06-03 13:54:00,
2013-06-03 09:59:00,72.0,66.9,28.94,NE,38,0.0,0.0,84,0.00,,SKC,0.00,VWS V14.00,2013-06-03 13:59:00,
2013-06-03 10:04:00,72.0,66.9,28.94,NE,38,0.0,0.0,84,0.00,,SKC,0.00,VWS V14.00,2013-06-03 14:04:00,
2013-06-03 10:09:00,72.1,67.0,28.94,NE,38,0.0,0.0,84,0.00,,SKC,0.00,VWS V14.00,2013-06-03 14:09:00,
2013-06-03 10:14:00,72.1,67.0,28.94,NE,38,0.0,0.0,84,0.00,,SKC,0.00,VWS V14.00,2013-06-03 14:14:00,
2013-06-03 10:19:00,72.5,67.7,28.94,NE,38,0.0,0.0,85,0.00,,SKC,0.00,VWS V14.00,2013-06-03 14:19:00,
2013-06-03 10:24:00,72.7,67.6,28.94,NE,38,0.0,0.0,84,0.00,,SKC,0.00,VWS V14.00,2013-06-03 14:24:00,
2013-06-03 10:29:00,73.0,67.9,28.94,East,100,0.0,0.0,84,0.00,,SKC,0.00,VWS V14.00,2013-06-03 14:29:00,
2013-06-03 10:34:00,73.4,67.9,28.94,NE,48,0.0,0.0,83,0.00,,SKC,0.00,VWS V14.00,2013-06-03 14:34:00,
2013-06-03 10:39:00,73.9,68.5,28.94,South,179,0.0,0.0,83,0.00,,SKC,0.00,VWS V14.00,2013-06-03 14:39:00,
2013-06-03 10:44:00,74.3,69.2,28.94,South,179,0.0,0.0,84,0.00,,SKC,0.00,VWS V14.00,2013-06-03 14:44:00,
2013-06-03 10:49:00,74.3,68.8,28.94,South,179,0.0,0.0,83,0.00,,SKC,0.00,VWS V14.00,2013-06-03 14:49:00,
2013-06-03 10:54:00,74.1,68.3,28.94,NE,39,0.0,0.0,82,0.00,,SKC,0.00,VWS V14.00,2013-06-03 14:54:00,
2013-06-03 10:59:00,74.5,68.6,28.94,NE,39,0.0,0.0,82,0.00,,SKC,0.00,VWS V14.00,2013-06-03 14:59:00,
2013-06-03 11:04:00,74.7,68.4,28.94,NE,39,0.0,0.0,81,0.00,,SKC,0.00,VWS V14.00,2013-06-03 15:04:00,
2013-06-03 11:09:00,74.5,68.3,28.94,NE,39,0.0,0.0,81,0.00,,SKC,0.00,VWS V14.00,2013-06-03 15:09:00,
2013-06-03 11:14:00,74.5,67.9,28.94,NE,39,0.0,0.0,80,0.00,,SKC,0.00,VWS V14.00,2013-06-03 15:14:00,
2013-06-03 11:19:00,74.8,68.3,28.94,NE,39,0.0,0.0,80,0.00,,SKC,0.00,VWS V14.00,2013-06-03 15:19:00,
2013-06-03 11:24:00,74.8,67.9,28.94,NE,39,0.0,0.0,79,0.00,,SKC,0.00,VWS V14.00,2013-06-03 15:24:00,
2013-06-03 11:29:00,74.7,68.1,28.94,NE,39,0.0,0.0,80,0.00,,SKC,0.00,VWS V14.00,2013-06-03 15:29:00,
2013-06-03 11:34:00,74.8,68.3,28.94,NE,39,0.0,0.0,80,0.00,,SKC,0.00,VWS V14.00,2013-06-03 15:34:00,
2013-06-03 11:39:00,75.4,68.8,28.94,NE,39,0.0,0.0,80,0.00,,SKC,0.00,VWS V14.00,2013-06-03 15:39:00,
2013-06-03 11:44:00,75.9,68.9,28.94,NE,37,0.0,0.0,79,0.00,,SKC,0.00,VWS V14.00,2013-06-03 15:44:00,
2013-06-03 11:49:00,75.7,68.8,28.94,NE,40,0.0,3.1,79,0.00,,SKC,0.00,VWS V14.00,2013-06-03 15:49:00,
2013-06-03 11:54:00,75.9,68.6,28.94,SSW,203,0.0,0.0,78,0.00,,SKC,0.00,VWS V14.00,2013-06-03 15:54:00,
2013-06-03 11:59:00,76.1,68.8,28.94,SSW,202,0.0,0.0,78,0.00,,SKC,0.00,VWS V14.00,2013-06-03 15:59:00,
2013-06-03 12:04:00,76.6,69.6,28.94,SSW,202,0.0,0.0,79,0.00,,SKC,0.00,VWS V14.00,2013-06-03 16:04:00,
2013-06-03 12:09:00,77.0,69.6,28.94,SSW,202,0.0,0.0,78,0.00,,SKC,0.00,VWS V14.00,2013-06-03 16:09:00,
2013-06-03 12:14:00,76.6,68.9,28.94,SSW,202,0.0,0.0,77,0.00,,SKC,0.00,VWS V14.00,2013-06-03 16:14:00,
2013-06-03 12:19:00,76.6,68.9,28.94,SSW,202,0.0,0.0,77,0.00,,SKC,0.00,VWS V14.00,2013-06-03 16:19:00,
2013-06-03 12:24:00,77.2,69.4,28.94,SSW,202,0.0,0.0,77,0.00,,SKC,0.00,VWS V14.00,2013-06-03 16:24:00,
2013-06-03 12:29:00,77.5,69.8,28.94,SSW,202,0.0,0.0,77,0.00,,SKC,0.00,VWS V14.00,2013-06-03 16:29:00,
2013-06-03 12:34:00,77.4,69.6,28.94,SSW,202,0.0,0.0,77,0.00,,SKC,0.00,VWS V14.00,2013-06-03 16:34:00,
2013-06-03 12:39:00,77.2,69.4,28.94,SSW,202,0.0,0.0,77,0.00,,SKC,0.00,VWS V14.00,2013-06-03 16:39:00,
2013-06-03 12:44:00,77.0,68.9,28.94,SSW,202,0.0,0.0,76,0.00,,SKC,0.00,VWS V14.00,2013-06-03 16:44:00,
2013-06-03 12:49:00,77.2,68.7,28.94,NNE,20,0.0,0.0,75,0.00,,SKC,0.00,VWS V14.00,2013-06-03 16:49:00,
2013-06-03 12:54:00,77.5,68.6,28.94,NNE,31,0.0,2.7,74,0.00,,SKC,0.00,VWS V14.00,2013-06-03 16:54:00,
2013-06-03 13:00:00,77.5,68.2,28.94,East,87,0.0,2.7,73,0.00,,SKC,0.00,VWS V14.00,2013-06-03 17:00:00,
2013-06-03 13:05:00,77.5,68.2,28.94,WNW,302,0.0,0.0,73,0.00,,SKC,0.00,VWS V14.00,2013-06-03 17:05:00,
2013-06-03 13:10:00,77.5,68.2,28.94,WNW,302,0.0,0.0,73,0.00,,SKC,0.00,VWS V14.00,2013-06-03 17:10:00,
2013-06-03 13:15:00,77.0,67.7,28.94,SSW,204,0.0,0.0,73,0.00,,SKC,0.00,VWS V14.00,2013-06-03 17:15:00,
2013-06-03 13:20:00,77.0,67.7,28.94,WNW,285,0.0,0.0,73,0.00,,SKC,0.00,VWS V14.00,2013-06-03 17:20:00,
2013-06-03 13:25:00,77.2,67.9,28.94,WNW,301,0.0,0.0,73,0.00,,SKC,0.00,VWS V14.00,2013-06-03 17:25:00,
2013-06-03 13:30:00,77.9,68.2,28.94,SSW,200,0.0,2.7,72,0.00,,SKC,0.00,VWS V14.00,2013-06-03 17:30:00,
2013-06-03 13:35:00,78.4,69.1,28.91,SW,217,0.0,3.6,73,0.00,,SKC,0.00,VWS V14.00,2013-06-03 17:35:00,
2013-06-03 13:40:00,79.2,68.9,28.91,West,275,0.0,3.6,71,0.00,,SKC,0.00,VWS V14.00,2013-06-03 17:40:00,
2013-06-03 13:45:00,78.4,67.8,28.91,SW,226,0.0,0.0,70,0.00,,SKC,0.00,VWS V14.00,2013-06-03 17:45:00,
2013-06-03 13:50:00,77.7,67.2,28.91,SW,226,0.0,0.0,70,0.00,,SKC,0.00,VWS V14.00,2013-06-03 17:50:00,
2013-06-03 13:55:00,77.4,66.8,28.91,SW,226,0.0,0.0,70,0.00,,SKC,0.00,VWS V14.00,2013-06-03 17:55:00,
2013-06-03 14:00:00,77.2,67.1,28.91,SW,226,0.0,0.0,71,0.00,,SKC,0.00,VWS V14.00,2013-06-03 18:00:00,
2013-06-03 14:05:00,76.8,66.7,28.91,SW,226,0.0,0.0,71,0.00,,SKC,0.00,VWS V14.00,2013-06-03 18:05:00,
2013-06-03 14:10:00,77.4,67.2,28.91,SW,226,0.0,0.0,71,0.00,,SKC,0.00,VWS V14.00,2013-06-03 18:10:00,
2013-06-03 14:15:00,77.9,67.3,28.91,SW,226,0.0,0.0,70,0.00,,SKC,0.00,VWS V14.00,2013-06-03 18:15:00,
2013-06-03 14:20:00,78.3,66.4,28.91,NE,44,0.0,2.7,67,0.00,,SKC,0.00,VWS V14.00,2013-06-03 18:20:00,
2013-06-03 14:25:00,78.6,65.4,28.91,North,353,0.0,4.5,64,0.00,,SKC,0.00,VWS V14.00,2013-06-03 18:25:00,
2013-06-03 14:30:00,79.3,66.1,28.91,SW,235,0.0,4.5,64,0.00,,SKC,0.00,VWS V14.00,2013-06-03 18:30:00,
2013-06-03 14:35:00,80.1,67.2,28.88,SE,146,0.0,0.0,65,0.00,,SKC,0.00,VWS V14.00,2013-06-03 18:35:00,
2013-06-03 14:40:00,80.4,67.1,28.88,ENE,75,0.0,2.2,64,0.00,,SKC,0.00,VWS V14.00,2013-06-03 18:40:00,
2013-06-03 14:45:00,80.8,64.6,28.88,ESE,116,2.7,3.6,58,0.00,,SKC,0.00,VWS V14.00,2013-06-03 18:45:00,
2013-06-03 14:50:00,80.8,65.6,28.88,North,5,0.0,3.6,60,0.00,,SKC,0.00,VWS V14.00,2013-06-03 18:50:00,
2013-06-03 14:55:00,81.0,66.3,28.88,North,7,0.0,2.7,61,0.00,,SKC,0.00,VWS V14.00,2013-06-03 18:55:00,
2013-06-03 15:00:00,80.4,65.8,28.88,North,6,0.0,2.7,61,0.00,,SKC,0.00,VWS V14.00,2013-06-03 19:00:00,
2013-06-03 15:05:00,79.9,65.2,28.88,SSW,212,0.0,0.0,61,0.00,,SKC,0.00,VWS V14.00,2013-06-03 19:05:00,
2013-06-03 15:10:00,79.5,64.4,28.88,NNE,25,0.0,3.6,60,0.00,,SKC,0.00,VWS V14.00,2013-06-03 19:10:00,
2013-06-03 15:15:00,79.0,63.9,28.88,NE,39,0.0,3.1,60,0.00,,SKC,0.00,VWS V14.00,2013-06-03 19:15:00,
2013-06-03 15:20:00,78.4,63.4,28.88,NE,44,0.0,3.1,60,0.00,,SKC,0.00,VWS V14.00,2013-06-03 19:20:00,
2013-06-03 15:25:00,78.6,64.1,28.88,NE,39,0.0,0.0,61,0.00,,SKC,0.00,VWS V14.00,2013-06-03 19:25:00,
2013-06-03 15:30:00,78.8,64.2,28.88,East,80,0.0,0.0,61,0.00,,SKC,0.00,VWS V14.00,2013-06-03 19:30:00,
2013-06-03 15:35:00,78.6,64.1,28.88,SSW,208,0.0,0.0,61,0.00,,SKC,0.00,VWS V14.00,2013-06-03 19:35:00,
2013-06-03 15:40:00,78.4,63.9,28.88,SW,220,0.0,0.0,61,0.00,,SKC,0.00,VWS V14.00,2013-06-03 19:40:00,
2013-06-03 15:45:00,78.3,63.7,28.88,SW,220,0.0,0.0,61,0.00,,SKC,0.00,VWS V14.00,2013-06-03 19:45:00,
2013-06-03 15:50:00,78.3,63.7,28.88,SW,220,0.0,0.0,61,0.00,,SKC,0.00,VWS V14.00,2013-06-03 19:50:00,
2013-06-03 15:55:00,78.8,63.3,28.88,SW,220,0.0,0.0,59,0.00,,SKC,0.00,VWS V14.00,2013-06-03 19:55:00,
2013-06-03 16:00:00,79.2,61.6,28.88,NE,49,0.0,4.0,55,0.00,,SKC,0.00,VWS V14.00,2013-06-03 20:00:00,
2013-06-03 16:05:00,79.5,61.4,28.88,North,10,0.0,3.6,54,0.00,,SKC,0.00,VWS V14.00,2013-06-03 20:05:00,
2013-06-03 16:10:00,79.3,62.3,28.88,SSE,151,0.0,3.6,56,0.00,,SKC,0.00,VWS V14.00,2013-06-03 20:10:00,
2013-06-03 16:15:00,79.5,62.5,28.88,SSW,211,0.0,0.0,56,0.00,,SKC,0.00,VWS V14.00,2013-06-03 20:15:00,
2013-06-03 16:20:00,79.5,62.5,28.85,WNW,292,0.0,0.0,56,0.00,,SKC,0.00,VWS V14.00,2013-06-03 20:20:00,
2013-06-03 16:25:00,79.5,62.0,28.85,SSE,155,0.0,0.0,55,0.00,,SKC,0.00,VWS V14.00,2013-06-03 20:25:00,
2013-06-03 16:30:00,79.3,62.3,28.85,South,173,0.0,0.0,56,0.00,,SKC,0.00,VWS V14.00,2013-06-03 20:30:00,
2013-06-03 16:35:00,78.8,61.3,28.85,NNE,31,0.0,0.0,55,0.00,,SKC,0.00,VWS V14.00,2013-06-03 20:35:00,
2013-06-03 16:40:00,78.4,61.0,28.85,South,176,0.0,0.0,55,0.00,,SKC,0.00,VWS V14.00,2013-06-03 20:40:00,
2013-06-03 16:45:00,78.4,60.4,28.85,NNE,33,0.0,2.7,54,0.00,,SKC,0.00,VWS V14.00,2013-06-03 20:45:00,
2013-06-03 16:50:00,78.8,60.8,28.85,NNE,33,0.0,0.0,54,0.00,,SKC,0.00,VWS V14.00,2013-06-03 20:50:00,
2013-06-03 16:55:00,78.8,61.3,28.85,East,97,0.0,0.0,55,0.00,,SKC,0.00,VWS V14.00,2013-06-03 20:55:00,
2013-06-03 17:00:00,78.6,61.6,28.85,East,97,0.0,0.0,56,0.00,,SKC,0.00,VWS V14.00,2013-06-03 21:00:00,
2013-06-03 17:05:00,78.6,60.6,28.85,South,172,0.0,0.0,54,0.00,,SKC,0.00,VWS V14.00,2013-06-03 21:05:00,
2013-06-03 17:10:00,78.6,60.1,28.85,NE,34,0.0,0.0,53,0.00,,SKC,0.00,VWS V14.00,2013-06-03 21:10:00,
2013-06-03 17:15:00,78.3,60.3,28.85,West,265,0.0,0.0,54,0.00,,SKC,0.00,VWS V14.00,2013-06-03 21:15:00,
2013-06-03 17:20:00,78.1,59.6,28.85,West,264,0.0,0.0,53,0.00,,SKC,0.00,VWS V14.00,2013-06-03 21:20:00,
2013-06-03 17:25:00,77.5,59.1,28.85,NW,324,0.0,0.0,53,0.00,,SKC,0.00,VWS V14.00,2013-06-03 21:25:00,
2013-06-03 17:30:00,77.4,58.9,28.85,NW,324,0.0,0.0,53,0.00,,SKC,0.00,VWS V14.00,2013-06-03 21:30:00,
2013-06-03 17:35:00,77.4,58.9,28.85,NW,324,0.0,0.0,53,0.00,,SKC,0.00,VWS V14.00,2013-06-03 21:35:00,
2013-06-03 17:40:00,77.2,59.3,28.85,South,189,0.0,0.0,54,0.00,,SKC,0.00,VWS V14.00,2013-06-03 21:40:00,
2013-06-03 17:45:00,77.0,59.1,28.85,West,276,0.0,0.0,54,0.00,,SKC,0.00,VWS V14.00,2013-06-03 21:45:00,
2013-06-03 17:50:00,76.6,58.8,28.85,West,273,0.0,0.0,54,0.00,,SKC,0.00,VWS V14.00,2013-06-03 21:50:00,
2013-06-03 17:55:00,76.5,59.1,28.85,West,273,0.0,0.0,55,0.00,,SKC,0.00,VWS V14.00,2013-06-03 21:55:00,
2013-06-03 18:00:00,76.5,59.1,28.85,WSW,257,0.0,0.0,55,0.00,,SKC,0.00,VWS V14.00,2013-06-03 22:00:00,
2013-06-03 18:05:00,76.5,59.6,28.85,West,267,0.0,0.0,56,0.00,,SKC,0.00,VWS V14.00,2013-06-03 22:05:00,
2013-06-03 18:10:00,76.5,59.1,28.85,NW,308,0.0,0.0,55,0.00,,SKC,0.00,VWS V14.00,2013-06-03 22:10:00,
2013-06-03 18:15:00,76.6,59.8,28.85,WNW,282,0.0,0.0,56,0.00,,SKC,0.00,VWS V14.00,2013-06-03 22:15:00,
2013-06-03 18:20:00,76.5,59.6,28.85,WNW,282,0.0,0.0,56,0.00,,SKC,0.00,VWS V14.00,2013-06-03 22:20:00,
2013-06-03 18:25:00,76.3,58.9,28.85,West,281,0.0,0.0,55,0.00,,SKC,0.00,VWS V14.00,2013-06-03 22:25:00,
2013-06-03 18:30:00,75.9,59.1,28.85,SE,127,0.0,0.0,56,0.00,,SKC,0.00,VWS V14.00,2013-06-03 22:30:00,
2013-06-03 18:36:00,75.7,59.4,28.85,SE,127,0.0,0.0,57,0.00,,SKC,0.00,VWS V14.00,2013-06-03 22:36:00,
2013-06-03 18:41:00,75.6,59.3,28.85,SE,127,0.0,0.0,57,0.00,,SKC,0.00,VWS V14.00,2013-06-03 22:41:00,
2013-06-03 18:46:00,75.6,58.8,28.85,SE,127,0.0,0.0,56,0.00,,SKC,0.00,VWS V14.00,2013-06-03 22:46:00,
2013-06-03 18:51:00,75.6,59.3,28.85,SSE,166,0.0,0.0,57,0.00,,SKC,0.00,VWS V14.00,2013-06-03 22:51:00,
2013-06-03 18:56:00,75.6,59.3,28.85,SSE,166,0.0,0.0,57,0.00,,SKC,0.00,VWS V14.00,2013-06-03 22:56:00,
2013-06-03 19:01:00,75.7,59.9,28.85,SW,220,0.0,0.0,58,0.00,,SKC,0.00,VWS V14.00,2013-06-03 23:01:00,
2013-06-03 19:06:00,75.7,59.0,28.85,SW,220,0.0,0.0,56,0.00,,SKC,0.00,VWS V14.00,2013-06-03 23:06:00,
2013-06-03 19:11:00,75.9,58.6,28.85,NNE,14,0.0,0.0,55,0.00,,SKC,0.00,VWS V14.00,2013-06-03 23:11:00,
2013-06-03 19:16:00,75.9,58.1,28.85,NNE,33,0.0,3.6,54,0.00,,SKC,0.00,VWS V14.00,2013-06-03 23:16:00,
2013-06-03 19:21:00,76.1,58.3,28.85,WNW,295,0.0,0.0,54,0.00,,SKC,0.00,VWS V14.00,2013-06-03 23:21:00,
2013-06-03 19:26:00,76.1,58.3,28.85,NE,47,0.0,0.0,54,0.00,,SKC,0.00,VWS V14.00,2013-06-03 23:26:00,
2013-06-03 19:31:00,76.1,57.8,28.85,North,357,0.0,0.0,53,0.00,,SKC,0.00,VWS V14.00,2013-06-03 23:31:00,
2013-06-03 19:36:00,76.1,57.2,28.85,NNE,29,0.0,3.6,52,0.00,,SKC,0.00,VWS V14.00,2013-06-03 23:36:00,
2013-06-03 19:41:00,76.1,57.2,28.85,NE,41,0.0,0.0,52,0.00,,SKC,0.00,VWS V14.00,2013-06-03 23:41:00,
2013-06-03 19:46:00,75.7,56.9,28.85,NE,39,0.0,0.0,52,0.00,,SKC,0.00,VWS V14.00,2013-06-03 23:46:00,
2013-06-03 19:51:00,75.2,56.9,28.88,NE,39,0.0,0.0,53,0.00,,SKC,0.00,VWS V14.00,2013-06-03 23:51:00,
2013-06-03 19:56:00,75.0,56.8,28.88,NE,34,0.0,4.0,53,0.00,,SKC,0.00,VWS V14.00,2013-06-03 23:56:00,
2013-06-03 20:06:00,74.8,56.0,28.88,NE,36,0.0,4.0,52,0.00,,SKC,0.00,VWS V14.00,2013-06-04 00:06:00,
2013-06-03 20:16:00,74.7,55.9,28.88,NE,40,0.0,4.0,52,0.00,,SKC,0.00,VWS V14.00,2013-06-04 00:16:00,
2013-06-03 20:21:00,74.5,55.7,28.88,NNE,31,0.0,0.0,52,0.00,,SKC,0.00,VWS V14.00,2013-06-04 00:21:00,
2013-06-03 20:26:00,74.1,55.4,28.88,NE,49,0.0,0.0,52,0.00,,SKC,0.00,VWS V14.00,2013-06-04 00:26:00,
2013-06-03 20:31:00,73.9,55.2,28.88,ENE,66,0.0,0.0,52,0.00,,SKC,0.00,VWS V14.00,2013-06-04 00:31:00,
2013-06-03 20:36:00,73.6,54.9,28.88,NE,47,0.0,4.0,52,0.00,,SKC,0.00,VWS V14.00,2013-06-04 00:36:00,
2013-06-03 20:41:00,73.4,54.7,28.88,NE,51,0.0,0.0,52,0.00,,SKC,0.00,VWS V14.00,2013-06-04 00:41:00,
2013-06-03 20:46:00,73.0,54.9,28.88,NE,55,0.0,0.0,53,0.00,,SKC,0.00,VWS V14.00,2013-06-04 00:46:00,
2013-06-03 20:52:00,72.7,55.1,28.88,NE,55,0.0,0.0,54,0.00,,SKC,0.00,VWS V14.00,2013-06-04 00:52:00,
2013-06-03 20:57:00,72.5,54.9,28.88,NE,55,0.0,0.0,54,0.00,,SKC,0.00,VWS V14.00,2013-06-04 00:57:00,
2013-06-03 21:02:00,72.3,55.3,28.88,NE,55,0.0,0.0,55,0.00,,SKC,0.00,VWS V14.00,2013-06-04 01:02:00,
2013-06-03 21:07:00,72.3,55.3,28.91,NE,53,0.0,3.6,55,0.00,,SKC,0.00,VWS V14.00,2013-06-04 01:07:00,
2013-06-03 21:12:00,72.1,55.1,28.91,NE,53,0.0,0.0,55,0.00,,SKC,0.00,VWS V14.00,2013-06-04 01:12:00,
2013-06-03 21:17:00,72.1,55.1,28.91,NE,53,0.0,0.0,55,0.00,,SKC,0.00,VWS V14.00,2013-06-04 01:17:00,
2013-06-03 21:22:00,72.0,54.9,28.91,NE,53,0.0,0.0,55,0.00,,SKC,0.00,VWS V14.00,2013-06-04 01:22:00,
2013-06-03 21:27:00,71.8,55.3,28.91,NE,36,0.0,0.0,56,0.00,,SKC,0.00,VWS V14.00,2013-06-04 01:27:00,
2013-06-03 21:32:00,71.6,54.6,28.91,NE,43,0.0,0.0,55,0.00,,SKC,0.00,VWS V14.00,2013-06-04 01:32:00,
2013-06-03 21:37:00,71.6,54.6,28.91,NE,46,0.0,0.0,55,0.00,,SKC,0.00,VWS V14.00,2013-06-04 01:37:00,
2013-06-03 21:42:00,71.6,54.6,28.91,ENE,76,4.3,4.3,55,0.00,,SKC,0.00,VWS V14.00,2013-06-04 01:42:00,
2013-06-03 21:47:00,71.6,54.6,28.91,NNE,22,0.0,3.6,55,0.00,,SKC,0.00,VWS V14.00,2013-06-04 01:47:00,
2013-06-03 21:52:00,71.6,54.1,28.91,NNE,33,0.0,0.0,54,0.00,,SKC,0.00,VWS V14.00,2013-06-04 01:52:00,
2013-06-03 21:57:00,71.4,54.4,28.91,NNE,20,0.0,3.6,55,0.00,,SKC,0.00,VWS V14.00,2013-06-04 01:57:00,
2013-06-03 22:02:00,71.4,53.9,28.91,NNE,20,0.0,0.0,54,0.00,,SKC,0.00,VWS V14.00,2013-06-04 02:02:00,
2013-06-03 22:07:00,71.2,54.3,28.94,NNE,20,0.0,0.0,55,0.00,,SKC,0.00,VWS V14.00,2013-06-04 02:07:00,
2013-06-03 22:12:00,70.9,53.9,28.94,NNE,20,0.0,0.0,55,0.00,,SKC,0.00,VWS V14.00,2013-06-04 02:12:00,
2013-06-03 22:17:00,70.7,54.2,28.94,NNE,20,0.0,0.0,56,0.00,,SKC,0.00,VWS V14.00,2013-06-04 02:17:00,
2013-06-03 22:22:00,70.5,54.1,28.94,NNE,20,0.0,0.0,56,0.00,,SKC,0.00,VWS V14.00,2013-06-04 02:22:00,
2013-06-03 22:27:00,70.3,54.4,28.94,NNE,20,0.0,0.0,57,0.00,,SKC,0.00,VWS V14.00,2013-06-04 02:27:00,
2013-06-03 22:32:00,70.2,54.2,28.94,NNE,20,0.0,0.0,57,0.00,,SKC,0.00,VWS V14.00,2013-06-04 02:32:00,
2013-06-03 22:37:00,70.0,54.1,28.94,NNE,20,0.0,0.0,57,0.00,,SKC,0.00,VWS V14.00,2013-06-04 02:37:00,
2013-06-03 22:42:00,70.0,54.5,28.94,NNE,20,0.0,0.0,58,0.00,,SKC,0.00,VWS V14.00,2013-06-04 02:42:00,
2013-06-03 22:47:00,69.8,54.4,28.94,NNE,20,0.0,0.0,58,0.00,,SKC,0.00,VWS V14.00,2013-06-04 02:47:00,
2013-06-03 22:52:00,69.8,54.8,28.94,NNE,20,0.0,0.0,59,0.00,,SKC,0.00,VWS V14.00,2013-06-04 02:52:00,
2013-06-03 22:57:00,69.8,54.8,28.94,NNE,20,0.0,0.0,59,0.00,,SKC,0.00,VWS V14.00,2013-06-04 02:57:00,
2013-06-03 23:02:00,69.8,55.3,28.94,NNE,20,0.0,0.0,60,0.00,,SKC,0.00,VWS V14.00,2013-06-04 03:02:00,
2013-06-03 23:07:00,69.8,55.3,28.94,NNE,20,0.0,0.0,60,0.00,,SKC,0.00,VWS V14.00,2013-06-04 03:07:00,
2013-06-03 23:12:00,69.6,55.1,28.94,NNE,20,0.0,0.0,60,0.00,,SKC,0.00,VWS V14.00,2013-06-04 03:12:00,
2013-06-03 23:17:00,69.6,55.6,28.94,NNE,20,0.0,0.0,61,0.00,,SKC,0.00,VWS V14.00,2013-06-04 03:17:00,
2013-06-03 23:22:00,69.4,55.4,28.94,NNE,20,0.0,0.0,61,0.00,,SKC,0.00,VWS V14.00,2013-06-04 03:22:00,
2013-06-03 23:27:00,69.3,55.2,28.94,NNE,20,0.0,0.0,61,0.00,,SKC,0.00,VWS V14.00,2013-06-04 03:27:00,
2013-06-03 23:32:00,69.1,55.5,28.94,NNE,20,0.0,0.0,62,0.00,,SKC,0.00,VWS V14.00,2013-06-04 03:32:00,
2013-06-03 23:37:00,68.9,55.4,28.97,NNE,20,0.0,0.0,62,0.00,,SKC,0.00,VWS V14.00,2013-06-04 03:37:00,
2013-06-03 23:42:00,68.7,55.6,28.97,NNE,20,0.0,0.0,63,0.00,,SKC,0.00,VWS V14.00,2013-06-04 03:42:00,
2013-06-03 23:47:00,68.5,55.5,28.97,NNE,20,0.0,0.0,63,0.00,,SKC,0.00,VWS V14.00,2013-06-04 03:47:00,
2013-06-03 23:52:00,68.4,55.3,28.97,NNE,20,0.0,0.0,63,0.00,,SKC,0.00,VWS V14.00,2013-06-04 03:52:00,
2013-06-03 23:57:00,68.4,55.7,28.97,NNE,20,0.0,0.0,64,0.00,,SKC,0.00,VWS V14.00,2013-06-04 03:57:00,